Regional Weather Roundup
Issued by NWS Portland, ME

Current Version | Previous Version | Text Only | Print | Product List | Glossary Off
Versions: 1 2 3 4 5 6 7 8 9 10 11 12 13 14 15 16 17 18 19 20 21 22 23 24 25 26 27 28 29 30 31 32 33 34 35 36 37 38 39 40 41 42 43 44 45 46 47 48 49 50
000 ASUS41 KGYX 230005 RWRGYX WEATHER ROUNDUP FOR MAINE AND NEW HAMPSHIRE NATIONAL WEATHER SERVICE GRAY ME 800 PM EDT SUN APR 22 2018 MEZ002-005-006-010-012-015-018-020-021-024-026-027-029-230100- MAINE CITY SKY/WX TMP DP RH WIND PRES REMARKS PORTLAND FAIR 48 26 42 S7 30.32R 6HR MIN TEMP: 48; 6HR MAX TEMP: 60; SANFORD FAIR 45 34 65 CALM 30.32R BAR HARBOR FAIR 49 14 24 NW5 30.29R WISCASSET FAIR 50 16 25 CALM 30.32R 6HR MIN TEMP: 50; 6HR MAX TEMP: 60; ROCKLAND FAIR 45 29 53 CALM 30.30R FRYEBURG FAIR 49 15 25 NW6 30.33R 6HR MIN TEMP: 49; 6HR MAX TEMP: 59; LEWISTONAUBURN FAIR 51 16 24 NW8 30.33R AUGUSTA FAIR 48 16 27 NW7 30.31R 6HR MIN TEMP: 48; 6HR MAX TEMP: 59; WATERVILLE FAIR 49 13 23 N6 30.29R BANGOR FAIR 48 12 23 NW7 30.30R 6HR MIN TEMP: 47; 6HR MAX TEMP: 57; GREENVILLE N/A 40 14 34 NW6 30.26R 6HR MIN TEMP: 40; 6HR MAX TEMP: 47; MILLINOCKET FAIR 44 14 29 NW5 30.29R 6HR MIN TEMP: 43; 6HR MAX TEMP: 55; HOULTON FAIR 37 17 44 CALM 30.26R 6HR MIN TEMP: 37; 6HR MAX TEMP: 51; PRESQUE ISLE FAIR 39 15 37 NW3 30.27R 6HR MIN TEMP: 39; 6HR MAX TEMP: 47; FRENCHVILLE FAIR 43 12 28 NW8 30.25R 6HR MIN TEMP: 43; 6HR MAX TEMP: 46; CARIBOU FAIR 40 12 32 NW7 30.25R 6HR MIN TEMP: 39; 6HR MAX TEMP: 46; $$ NHZ002-005-008-009-011-012-014-230100- NEW HAMPSHIRE CITY SKY/WX TMP DP RH WIND PRES REMARKS ROCHESTER FAIR 51 17 26 NW7 30.31R 6HR MIN TEMP: 51; 6HR MAX TEMP: 60; NASHUA FAIR 55 17 22 NW6 30.33R MANCHESTER FAIR 58 11 15 NW6 30.32R 6HR MIN TEMP: 58; 6HR MAX TEMP: 64; CONCORD FAIR 52 12 20 NW8 30.33R 6HR MIN TEMP: 52; 6HR MAX TEMP: 61; LACONIA FAIR 51 13 21 W3 30.34R PLYMOUTH FAIR 50 16 26 MISG 30.34R BERLIN FAIR 46 16 30 N6 30.33R 6HR MIN TEMP: 46; 6HR MAX TEMP: 54; WHITEFIELD FAIR 45 16 31 NW5 30.34R 6HR MIN TEMP: 45; 6HR MAX TEMP: 55; JAFFREY FAIR 47 21 35 CALM 30.33R 6HR MIN TEMP: 47; 6HR MAX TEMP: 59; KEENE FAIR 49 16 26 CALM 30.34R LEBANON FAIR 47 17 30 NE5 30.34R 6HR MIN TEMP: 47; 6HR MAX TEMP: 59; MT WASHINGTON CLEAR 19 12 73 NW40 N/A WCI -2 6HR MIN TEMP: 19; 6HR MAX TEMP: 22; $$ VTZ005-007-008-230100- VERMONT CITY SKY/WX TMP DP RH WIND PRES REMARKS ST JOHNSBURY N/A 48 18 30 MISG 30.34R MONTPELIER FAIR 45 17 32 CALM 30.39R BURLINGTON FAIR 53 16 23 N3 30.36R $$ MAZ007-012-024-CTZ003-RIZ002-NYZ038-NYZ072-230100- SOUTHERN NEW ENGLAND AND NY CITY SKY/WX TMP DP RH WIND PRES REMARKS BOSTON FAIR 48 35 60 E6 30.33R WORCESTER FAIR 52 12 20 N7 30.33R NANTUCKET FAIR 40 37 89 S6 30.36R PROVIDENCE FAIR 52 33 48 S8 30.32R HARTFORD FAIR 55 16 21 N5 30.32R ALBANY FAIR 56 8 14 NW6 30.33R NEW YORK CITY FAIR 55 21 26 S12G21 30.34R $$ ANZ081-ANZ082-ANZ150-NHZ014-MEZ023>029-230100- COASTAL MARINE OBSERVATIONS STATION/POSITION TIME TEMP WIND PRES WAVE AIR SEA DIR/SP/G HT/PER (UTC) (F) (DEG/KT/KT) (MB) (FT/S) MOUNT DESERT ROC 0000 43 240/ 15/ 16 1025.9R MATINICUS ROCK 2300 44 240/ 14/ 15 1025.1R ISLE OF SHOALS 2300 49 180/ 16/ 17 1025.8R JEFFREYS LEDGE 2336 42 N/A 1/15 CASHES LEDGE BUO 2350 42 43 1026.3R 1/16 $$ .............KEY.............. WCI - WIND CHILL TC - TEMPERATURE IN CELSIUS VSB - VISIBILITY IN MILES HX - HEAT INDEX FAIR- INDICATES FEW OR NO CLOUDS BELOW 12,000 FT, WITH NO SIGNIFICANT WEATHER AND/OR OBSTRUCTIONS TO VISIBILITY.

USA.gov is the U.S. government's official web portal to all federal, state and local government web resources and services.